Racecast

Mackenzie Kruszka

Temperance Bedford (MI) · 12 · SECMI D1MONROE · Compare head to head

Athlete rating 98.3 2017 XC season
Best race 108.1 TF
Races 64
Seasons 7 2012 — 2018

RankedNation #90164·MI #4478·MI D1 #2499·SEC #231·Team #102 ?

Rating scale ?
Speed rating — all races

Cross Country

XC speed rating

2017 XC 91.7

Temperance Bedford (MI) · Grade 12

Date Meet Event Result Place Rating Difficulty PR/SR Flags
2017-10-28 Lake Erie Metro Park OFFICIAL 5000m 25:09.1 62nd · 13th on team 98.9 +0.007 CSR
2017-10-19 Hudson Mills Metropark - OFFICIAL 5000m 25:49.3 116th · 10th on team 95.9 -0.006 CSR
2017-10-10 Indian Creek OFFICIAL 5000m 25:08.3 17th · 14th on team 99.2 +0.004 SR CSR RSR
2017-10-07 Portage West MS 5000m 27:26.8 319th · 12th on team 91.0 -0.003 SR CSR RSR
2017-09-30 Lake Erie Metro Park OFFICIAL 5000m 27:36.3 49th · 15th on team 89.7 +0.007 SR CSR RSR
2017-09-22 Ella Sharp Park OFFICIAL 5000m 29:27.8 125th · 15th on team 85.8 -0.001 ★CR SR CSR RSR
2017-09-09 Hedges Boyer Park 5000m 30:18 390th · 12th on team 81.6 -0.003 SR CSR RSR

2016 XC 97.2

Temperance Bedford (MI) · Grade 11

Date Meet Event Result Place Rating Difficulty PR/SR Flags
2016-10-29 Lake Erie Metro Park OFFICIAL 5000m 25:19.8 70th · 12th on team 98.7 +0.007 CSR
2016-10-20 Hudson Mills Metropark - OFFICIAL 5000m 24:45.6 73rd · 10th on team 99.2 -0.006 CSR
2016-10-15 Hudson Mills Metropark - OFFICIAL 5000m 24:54 96th · 12th on team 99.6 -0.006 CSR
2016-10-08 Portage West MS 5000m 23:44 193rd · 7th on team 104.2 -0.003 ★CR SR CSR RSR
2016-10-01 Pearson's Metro Park 5000m 26:56.2 78th · 10th on team 91.9 +0.001 CSR
2016-09-27 Pioneer HS 5000m 25:22.6 49th · 7th on team 100.3 +0.018 ★CR SR CSR RSR
2016-09-17 Springfield Oaks County Park OFFICIAL 5000m 27:14 107th · 11th on team 95.2 +0.019 SR CSR RSR
2016-09-10 Hedges Boyer Park 5000m 28:01.2 462nd · 4th on team 88.7 -0.003 SR CSR RSR

2015 XC 99.0

Temperance Bedford (MI) · Grade 10

Date Meet Event Result Place Rating Difficulty PR/SR Flags
2015-10-31 Lake Erie Metro Park OFFICIAL 5000m 24:17.2 70th · 9th on team 102.1 +0.007 ★CR CSR
2015-10-22 Hudson Mills Metropark - OFFICIAL 5000m 24:01.3 77th · 11th on team 102.1 -0.006
2015-10-17 Hudson Mills Metropark - OFFICIAL 5000m 23:22.8 90th · 5th on team 104.6 -0.006 ★PR ★CR SR CSR RSR
2015-10-03 Pearson's Metro Park 5000m 24:00.8 16th · 16th on team 102.9 +0.001 PR ★CR SR CSR RSR
2015-09-29 Indian Creek OFFICIAL 5000m 24:28 48th · 7th on team 101.2 +0.004 PR ★CR SR CSR RSR
2015-09-19 Springfield Oaks County Park OFFICIAL 5000m 25:31 26th · 8th on team 98.9 +0.019 PR ★CR SR CSR RSR
2015-09-10 Munson Park 5000m 26:42.9 96th · 10th on team 93.2 +0.007 ★CR SR CSR RSR
2015-08-29 Boy Scout Camp Lakota 5000m 26:44.44 126th · 17th on team 93.0 +0.014 ★CR SR CSR
2015-08-27 Heritage Park (Adrian) OFFICIAL 5000m 26:56.8 79th · 17th on team 93.1 +0.035 ★CR SR CSR RSR

2014 XC 90.4

Temperance Bedford (MI) · Grade 9

Date Meet Event Result Place Rating Difficulty PR/SR Flags
2014-10-25 Lake Erie Metro Park OFFICIAL 5000m 27:56.8 129th · 20th on team 89.4 +0.007 CR CSR
2014-10-04 Portage West MS 5000m 25:58 206th · 16th on team 94.6 -0.003 PR CR SR CSR RSR
2014-09-23 Huron Meadows Metropark OFFICIAL 5000m 26:32.1 94th · 14th on team 93.7 -0.004 PR ★CR SR CSR RSR
2014-09-09 Hudson Mills Metropark - OFFICIAL 5000m 28:44.8 134th · 16th on team 85.8 -0.006 CR CSR
2014-09-06 Hedges Boyer Park 5000m 27:13 408th · 14th on team 89.9 -0.003 PR ★CR SR CSR RSR
2014-08-28 Heritage Park (Adrian) OFFICIAL 5000m 28:31.3 54th · 20th on team 89.0 +0.035 PR CR SR CSR RSR

2013 XC 99.1

Temperance Bedford (MI) · Grade 8

Date Meet Event Result Place Rating Difficulty PR/SR Flags
2013-10-19 Hudson Mills Metropark - OFFICIAL 3218m 15:56.3 79th · 3rd on team 106.8 +0.020 ★PR ★CR R SR CSR RSR
2013-10-09 Heritage Park (Adrian) OFFICIAL 3200m 15:59 58th · 11th on team 105.2 +0.014 ★PR ★CR R SR CSR RSR
2013-09-28 Pearson's Metro Park 3200m 16:37.5 91st · 12th on team 100.7 -0.005 PR ★CR SR CSR RSR
2013-09-13 Forest Akers East Golf Course 3200m 17:06 179th · 13th on team 96.9 +0.012 PR ★CR SR CSR RSR
2013-09-11 Munson Park 3200m 19:32.4 56th · 13th on team 86.1 +0.000 ★CR SR CSR RSR

2012 XC 81.1

Temperance Bedford (MI) · Grade 7

Date Meet Event Result Place Rating Difficulty PR/SR Flags
2012-10-20 Hudson Mills Metropark - OFFICIAL 3000m 16:09.5 75th · 4th on team 97.7 -0.022 ★PR ★CR R SR CSR RSR
2012-10-06 Portage West MS 1931m 13:13.3 61st · 12th on team 72.7 ★PR ★CR SR CSR
2012-09-29 Pearson's Metro Park 2253m 17:11.1 115th · 12th on team 66.8 ★PR ★CR SR CSR
2012-09-26 Hudson Mills Metropark - OFFICIAL 2655m 17:55.5 77th · 12th on team 75.5 ★PR ★CR SR CSR
2012-09-12 Tecumseh HS 3218m 19:34.5 58th · 10th on team 85.7 -0.008 PR ★CR SR CSR
2012-09-08 Tiffin 3200m 19:02.6 4th · 4th on team 88.5 -0.006 PR ★CR R SR CSR RSR
2012-08-27 Race Way Park 3200m 20:43 12th · 12th on team 80.8 +0.007 PR ★CR R SR CSR RSR

Track & Field

TF speed rating

2018 TF 98.8

Temperance Bedford (MI) · Grade 12

Date Meet Event Result Place Rating Difficulty PR/SR Flags
2018-05-07 SEC Red: Huron @ Bedford 800m 3:08 8th · 8th on team 98.8 -0.026 SR RSR

2017 TF 103.5

Temperance Bedford (MI) · Grade 11

Date Meet Event Result Place Rating Difficulty PR/SR Flags
2017-03-28 SEC Red: Bedford @ Pioneer 800m 3:00.31 10th · 4th on team 103.5 -0.017 SR RSR

2016 TF 101.9

Temperance Bedford (MI) · Grade 10

Date Meet Event Result Place Rating Difficulty PR/SR Flags
2016-05-03 SEC Tri: Huron/Skyline @ Bedford 800m 2:54.59 9th · 5th on team 104.9 -0.026 ★PR SR RSR
2016-04-26 Bedford @ Monroe 800m 3:02.6 11th · 8th on team 101.4 -0.022
2016-04-19 Saline @ Bedford 800m 3:00.75 15th · 7th on team 102.3 -0.026 PR SR RSR
2016-04-12 SEC: Bedford @ Pioneer 1600m 6:52.27 11th · 6th on team 101.5 -0.017 ★PR SR RSR
2016-04-12 SEC: Bedford @ Pioneer 800m 3:07.68 11th · 6th on team 99.2 -0.017 SR

2015 TF 96.0

Temperance Bedford (MI) · Grade 9

Date Meet Event Result Place Rating Difficulty PR/SR Flags
2015-04-28 SEC: Skyline @ Bedford 800m 3:08 14th · 8th on team 97.8 -0.026 SR RSR
2015-04-21 SEC: Bedford @ Pioneer 800m 3:19.72 17th · 12th on team 94.2 -0.017 SR RSR

2014 TF 100.6

Temperance Bedford (MI) · Grade 8

Date Meet Event Result Place Rating Difficulty PR/SR Flags
2014-05-08 Bedford vs Adrian 800m 3:11 3rd · 3rd on team 105.7 -0.026
2014-05-05 Bedford vs Ypsilanti 800m 3:07 3rd · 3rd on team 108.1 -0.021 PR ★R SR RSR
2014-04-28 Bedford vs Monroe 400m 1:26.04 10th · 10th on team -0.026 ★PR SR
2014-04-28 Bedford vs Monroe 800m 3:14 3rd · 3rd on team 105.2 -0.026
2014-04-16 Bedford TT 100m 15.24 22nd · 22nd on team -0.026 ★PR SR
2014-04-16 Bedford TT 800m 3:50 47th · 47th on team 87.8 -0.026
2014-04-16 Bedford TT 1600m 8:23 42nd · 42nd on team 89.9 -0.026 SR
2014-04-16 Bedford TT 400m 1:31.14 46th · 46th on team -0.026 SR
2014-04-16 Bedford TT 200m 40.24 57th · 57th on team -0.026 ★PR SR
2014-04-14 Bedford vs Tecumseh 800m 3:10 5th · 5th on team 106.8 -0.026 PR R SR RSR

2013 TF 100.0

Temperance Bedford (MI) · Grade 7

Date Meet Event Result Place Rating Difficulty PR/SR Flags
2013-05-10 Saline MS Hornet Relays 1600m 7:41.63 22nd · 6th on team 96.8 -0.033 PR SR
2013-05-09 Bedford vs Lincoln 800m 3:14 5th · 5th on team 103.2 -0.026 PR R SR RSR
2013-05-09 Bedford vs Lincoln 400m 1:27.14 5th · 5th on team -0.026 PR SR